TimeMDT,TemperatureF,Dew PointF,Humidity,Sea Level PressureIn,VisibilityMPH,Wind Direction,Wind SpeedMPH,Gust SpeedMPH,PrecipitationIn,Events,Conditions,WindDirDegrees,DateUTC
12:53 AM,64.9,55.9,73,29.65,10.0,East,8.1,-,0.00,Rain,Light Rain,90,2013-07-07 06:53:00
1:53 AM,64.9,55.0,70,29.61,10.0,Calm,Calm,-,0.00,,Mostly Cloudy,0,2013-07-07 07:53:00
2:53 AM,60.1,53.1,78,29.67,10.0,SW,3.5,-,N/A,,Clear,220,2013-07-07 08:53:00
3:53 AM,57.9,52.0,81,29.67,10.0,Calm,Calm,-,N/A,,Clear,0,2013-07-07 09:53:00
4:53 AM,60.1,52.0,75,29.66,10.0,Calm,Calm,-,N/A,,Clear,0,2013-07-07 10:53:00
5:53 AM,57.0,51.1,81,29.71,10.0,Calm,Calm,-,N/A,,Clear,0,2013-07-07 11:53:00
6:53 AM,57.0,50.0,77,29.77,10.0,Calm,Calm,-,N/A,,Clear,0,2013-07-07 12:53:00
7:53 AM,64.9,52.0,63,29.76,10.0,Calm,Calm,-,N/A,,Clear,0,2013-07-07 13:53:00
8:53 AM,70.0,51.1,51,29.75,10.0,Calm,Calm,-,N/A,,Clear,0,2013-07-07 14:53:00
9:53 AM,73.9,51.1,45,29.73,10.0,Calm,Calm,-,N/A,,Clear,0,2013-07-07 15:53:00
10:53 AM,78.1,46.9,33,29.70,10.0,WSW,3.5,-,N/A,,Clear,250,2013-07-07 16:53:00
11:53 AM,82.0,46.0,28,29.66,10.0,Variable,4.6,-,N/A,,Clear,0,2013-07-07 17:53:00
12:53 PM,86.0,43.0,22,29.62,10.0,Variable,4.6,-,N/A,,Clear,0,2013-07-07 18:53:00
1:53 PM,87.1,41.0,20,29.60,10.0,Variable,3.5,-,N/A,,Clear,0,2013-07-07 19:53:00
2:53 PM,91.0,39.9,17,29.57,10.0,NW,11.5,16.1,N/A,,Clear,310,2013-07-07 20:53:00
3:53 PM,89.1,41.0,19,29.58,10.0,Variable,4.6,-,N/A,,Clear,0,2013-07-07 21:53:00
4:53 PM,90.0,41.0,18,29.55,10.0,Variable,4.6,-,N/A,,Clear,0,2013-07-07 22:53:00
5:53 PM,91.0,41.0,17,29.54,10.0,Variable,4.6,-,N/A,,Clear,0,2013-07-07 23:53:00
6:53 PM,90.0,37.9,16,29.54,10.0,NNW,11.5,-,N/A,,Scattered Clouds,330,2013-07-08 00:53:00
7:53 PM,86.0,39.9,20,29.53,10.0,SSW,9.2,-,N/A,,Partly Cloudy,200,2013-07-08 01:53:00
8:19 PM,84.2,41.0,22,30.11,10.0,South,6.9,-,N/A,Thunderstorm,Clear,170,2013-07-08 02:19:00
8:31 PM,84.2,41.0,22,30.12,10.0,South,11.5,-,N/A,Thunderstorm,Scattered Clouds,170,2013-07-08 02:31:00
8:53 PM,82.0,45.0,27,29.60,10.0,West,20.7,28.8,0.00,Rain-Thunderstorm,Light Thunderstorms and Rain,280,2013-07-08 02:53:00
9:02 PM,75.2,55.4,50,30.18,6.0,WSW,4.6,-,0.00,Rain-Thunderstorm,Thunderstorms and Rain,240,2013-07-08 03:02:00
9:53 PM,69.1,54.0,58,29.73,2.5,Calm,Calm,-,N/A,Rain-Thunderstorm,Heavy Thunderstorms and Rain,0,2013-07-08 03:53:00
10:00 PM,68.0,53.6,60,30.26,3.0,Calm,Calm,-,N/A,Rain-Thunderstorm,Heavy Thunderstorms and Rain,0,2013-07-08 04:00:00
10:33 PM,66.2,57.2,73,30.27,9.0,ESE,13.8,-,N/A,Rain-Thunderstorm,Light Thunderstorms and Rain,120,2013-07-08 04:33:00
10:53 PM,66.0,57.9,75,29.76,9.0,East,10.4,-,N/A,Rain,Light Rain,90,2013-07-08 04:53:00
11:53 PM,66.0,57.0,73,29.74,10.0,East,15.0,-,N/A,,Overcast,90,2013-07-08 05:53:00